Regional Weather Roundup
Issued by NWS

Home | Current Version | Previous Version | Graphics & Text | Print | Product List | Glossary Off
Versions: 1 2 3 4 5 6 7 8 9 10 11 12 13 14 15 16 17 18 19 20 21 22 23 24 25 26 27 28 29 30 31 32 33 34 35 36 37 38 39 40 41 42 43 44 45 46 47 48 49 50

000
ASUS43 KTOP 210608
RWRKS

WEATHER ROUNDUP FOR KANSAS
NATIONAL WEATHER SERVICE GOODLAND KS
100 AM CDT THU AUG 21 2014

NOTE:  "FAIR" INDICATES FEW OR NO CLOUDS BELOW 12,000 FEET WITH NO
SIGNIFICANT WEATHER AND/OR OBSTRUCTIONS TO VISIBILITY.

KSZ001>006-013>018-027>032-041>047-210700-
NORTHWEST KANSAS

CITY           SKY/WX    TMP DP  RH WIND       PRES   REMARKS
GOODLAND       CLEAR     66  60  81 CALM      29.85F
6HR MIN TEMP:  66; 6HR MAX TEMP:  87;

HAYS           FAIR      82  61  47 S17G24    29.81R
HILL CITY      FAIR      86  61  42 S9        29.77S
6HR MIN TEMP:  86; 6HR MAX TEMP:  96;

RUSSELL        FAIR      82  62  50 S17G25    29.80R
6HR MIN TEMP:  82; 6HR MAX TEMP:  93;

$$

KSZ061>065-074>080-084>089-210700-
SOUTHWEST KANSAS

CITY           SKY/WX    TMP DP  RH WIND       PRES   REMARKS
DODGE CITY     FAIR      82  59  45 S18G24    29.86R
6HR MIN TEMP:  82; 6HR MAX TEMP:  94;

ELKHART          N/A     79  59  50 S16         N/A
GARDEN CITY    FAIR      79  60  52 S12       29.85R
6HR MIN TEMP:  78; 6HR MAX TEMP:  93;

GREAT BEND     FAIR      81  61  50 S18       29.83R
LIBERAL        FAIR      82  57  42 S18G24    29.89S
PRATT          FAIR      81  57  44 S21G26    29.87S
$$

KSZ066>073-081>083-090>101-210700-
SOUTHEAST KANSAS

CITY           SKY/WX    TMP DP  RH WIND       PRES   REMARKS
CHANUTE        FAIR      79  68  69 S13       29.93R
6HR MIN TEMP:  79; 6HR MAX TEMP:  90;

COFFEYVILLE    FAIR      81  69  67 S14       29.93R
6HR MIN TEMP:  79; 6HR MAX TEMP:  90;

HUTCHINSON     FAIR      82  65  56 S20G25    29.86R
6HR MIN TEMP:  82; 6HR MAX TEMP:  94;

MEDICINE LODGE   N/A     83  64  52 S15G23    29.86R
NEWTON         FAIR      81  63  54 S21G28    29.91R
PARSONS        FAIR      79  68  69 S7        29.95R
6HR MIN TEMP:  79; 6HR MAX TEMP:  89;

WICHITA INTL   FAIR      81  66  60 S16       29.88R
6HR MIN TEMP:  81; 6HR MAX TEMP:  91;

WICHITA JABRA  FAIR      81  66  60 S18G30    29.88R
6HR MIN TEMP:  81; 6HR MAX TEMP:  90;

WICHITA MCCONL FAIR      81  67  63 S20G25    29.89R
WINFIELD       FAIR      80  67  64 S17       29.91R
6HR MIN TEMP:  80; 6HR MAX TEMP:  91;

$$

KSZ007>012-019>026-033>040-048>060-102>105-210700-
NORTHEAST KANSAS

CITY           SKY/WX    TMP DP  RH WIND       PRES   REMARKS
CONCORDIA      FAIR      80  66  62 S18G25    29.79F
6HR MIN TEMP:  80; 6HR MAX TEMP:  90;

EMPORIA        FAIR      79  69  71 S20       29.88R
6HR MIN TEMP:  79; 6HR MAX TEMP:  91;

LAWRENCE       FAIR      83  68  60 S9        29.89S
6HR MIN TEMP:  82; 6HR MAX TEMP:  93;

MANHATTAN      FAIR      84  66  54 S17G29    29.83R
6HR MIN TEMP:  84; 6HR MAX TEMP:  94;

MARYSVILLE     FAIR      82  66  57 S16       29.82S
OLATHE IND     FAIR      78  67  68 S10       29.91S
6HR MIN TEMP:  78; 6HR MAX TEMP:  90;

OLATHE EXE     FAIR      77  67  71 S12       29.91S
6HR MIN TEMP:  76; 6HR MAX TEMP:  87;

SALINA         FAIR      82  65  56 S16G26    29.82R
6HR MIN TEMP:  82; 6HR MAX TEMP:  93;

TOPEKA BILLARD FAIR      83  70  64 S12       29.87R
6HR MIN TEMP:  83; 6HR MAX TEMP:  93;

TOPEKA FORBES  FAIR      81  69  67 S12       29.88R
6HR MIN TEMP:  81; 6HR MAX TEMP:  92;

$$



USA.gov is the U.S. government's official web portal to all federal, state and local government web resources and services.